Tracking 18032 objects as of 27-March-2017
HD Live streaming from Space Station
objects crossing your sky now

GOES 4 AKM

Track GOES 4 AKM now!


NORAD ID: 11970
Int'l Code: 1980-074C
Perigee: 33,789.6 km
Apogee: 50,268.9 km
Inclination: 23.3 °
Period: 1,766.2 minutes
Semi major axis: 48400 km
RCS: 0.003 m2 (small)
Launch date: September 9, 1980
Source: United States (US)
Launch site: AIR FORCE EASTERN TEST RANGE (AFETR)

Note: This is a ROCKET BODY
Your satellite tracking list
Your tracking list is empty





NASA's NSSDC Master Catalog

Two Line Element Set (TLE):
1 11970U 80074C   17085.13045427 -.00000201 +00000-0 +00000-0 0  9998
2 11970 023.2797 343.0853 1702391 189.0436 335.2669 00.81532611108774
Source of the keplerian elements: AFSPC